| time (UTC) | temp C | wind direction | speed KPH | gust KPH | rain 1hr cm | rain 24hr cm | rain mn cm | humidity % | barometer mb |
| 20260503185343 | 17 | 224 | 12.9 | 12.9 | 0.00 | 0.00 | 0.00 | 39 | 1012.9 |
| 20260503184842 | 16 | 204 | 8.0 | 12.9 | 0.00 | 0.00 | 0.00 | 41 | 1013.1 |
| 20260503184339 | 16 | 220 | 1.6 | 11.3 | 0.00 | 0.00 | 0.00 | 43 | 1013.1 |
| 20260503183835 | 16 | 279 | 9.7 | 24.1 | 0.00 | 0.00 | 0.00 | 42 | 1013.1 |
| 20260503183332 | 16 | 220 | 11.3 | 20.9 | 0.00 | 0.00 | 0.00 | 40 | 1013.6 |
| 20260503182830 | 16 | 180 | 9.7 | 22.5 | 0.00 | 0.00 | 0.00 | 41 | 1013.7 |
| 20260503182329 | 16 | 220 | 6.4 | 16.1 | 0.00 | 0.00 | 0.00 | 42 | 1013.6 |
| 20260503181825 | 16 | 297 | 6.4 | 14.5 | 0.00 | 0.00 | 0.00 | 41 | 1013.8 |
| 20260503181322 | 16 | 208 | 3.2 | 9.7 | 0.00 | 0.00 | 0.00 | 42 | 1013.8 |
| 20260503180819 | 16 | 238 | 11.3 | 17.7 | 0.00 | 0.00 | 0.00 | 40 | 1013.9 |
| 20260503180317 | 16 | 201 | 9.7 | 16.1 | 0.00 | 0.00 | 0.00 | 40 | 1013.8 |
| 20260503175813 | 16 | 232 | 6.4 | 14.5 | 0.00 | 0.00 | 0.00 | 40 | 1013.9 |
| 20260503175311 | 16 | 48 | 4.8 | 22.5 | 0.00 | 0.00 | 0.00 | 43 | 1014.1 |
| 20260503174806 | 16 | 187 | 11.3 | 24.1 | 0.00 | 0.00 | 0.00 | 41 | 1013.7 |
| 20260503174305 | 16 | 224 | 8.0 | 16.1 | 0.00 | 0.00 | 0.00 | 42 | 1014.1 |
| 20260503173800 | 16 | 210 | 3.2 | 8.0 | 0.00 | 0.00 | 0.00 | 40 | 1014.1 |
| 20260503173256 | 16 | 283 | 8.0 | 25.7 | 0.00 | 0.00 | 0.00 | 41 | 1014.2 |
| 20260503172753 | 16 | 222 | 0.0 | 4.8 | 0.00 | 0.00 | 0.00 | 43 | 1014.1 |
| 20260503172250 | 16 | 302 | 1.6 | 12.9 | 0.00 | 0.00 | 0.00 | 42 | 1014.2 |
| 20260503171746 | 17 | 213 | 1.6 | 12.9 | 0.00 | 0.00 | 0.00 | 43 | 1014.4 |
| 20260503171244 | 16 | 244 | 0.0 | 4.8 | 0.00 | 0.00 | 0.00 | 43 | 1014.4 |
| 20260503170741 | 16 | 174 | 4.8 | 8.0 | 0.00 | 0.00 | 0.00 | 42 | 1014.3 |
| 20260503170237 | 15 | 200 | 4.8 | 22.5 | 0.00 | 0.00 | 0.00 | 42 | 1014.6 |
| 20260503160159 | 16 | 215 | 8.0 | 12.9 | 0.00 | 0.00 | 0.00 | 44 | 1015.4 |
| 20260503150630 | 12 | 204 | 6.4 | 9.7 | 0.00 | 0.00 | 0.00 | 57 | 1016.0 |
| 20260503150125 | 13 | 134 | 4.8 | 8.0 | 0.00 | 0.00 | 0.00 | 56 | 1015.8 |
| 20260503131020 | 7 | 193 | 4.8 | 8.0 | 0.00 | 0.00 | 0.00 | 72 | 1016.1 |
| 20260503130517 | 7 | 201 | 3.2 | 11.3 | 0.00 | 0.00 | 0.00 | 73 | 1016.0 |
| 20260503110407 | 2 | 265 | 0.0 | 3.2 | 0.00 | 0.00 | 0.00 | 96 | 1015.4 |
| 20260503090258 | 1 | 83 | 0.0 | 0.0 | 0.00 | 0.00 | 0.00 | 99 | 1014.8 |
| 20260503081225 | 1 | 57 | 0.0 | 0.0 | 0.00 | 0.00 | 0.00 | 99 | 1014.9 |
| 20260503080721 | 1 | 38 | 0.0 | 0.0 | 0.00 | 0.00 | 0.00 | 99 | 1015.1 |
| 20260503080218 | 1 | 20 | 0.0 | 0.0 | 0.00 | 0.00 | 0.00 | 99 | 1014.8 |
| 20260503072655 | 1 | 31 | 0.0 | 0.0 | 0.00 | 0.00 | 0.00 | 99 | 1014.8 |
| 20260503072151 | 1 | 39 | 0.0 | 0.0 | 0.00 | 0.00 | 0.00 | 99 | 1014.9 |
| 20260503071649 | 1 | 31 | 0.0 | 0.0 | 0.00 | 0.00 | 0.00 | 99 | 1014.8 |
| 20260503071145 | 1 | 30 | 0.0 | 0.0 | 0.00 | 0.00 | 0.00 | 99 | 1015.0 |
| 20260503070642 | 1 | 30 | 0.0 | 0.0 | 0.00 | 0.00 | 0.00 | 99 | 1015.0 |
| 20260503070141 | 1 | 30 | 0.0 | 0.0 | 0.00 | 0.00 | 0.00 | 99 | 1014.9 |
| 20260503060104 | 1 | 38 | 0.0 | 0.0 | 0.00 | 0.00 | 0.00 | 99 | 1015.2 |
| 20260503055055 | 1 | 38 | 0.0 | 0.0 | 0.00 | 0.00 | 0.00 | 99 | 1015.2 |
| 20260503054551 | 1 | 38 | 0.0 | 0.0 | 0.00 | 0.00 | 0.00 | 99 | 1015.3 |
| 20260503054049 | 1 | 33 | 0.0 | 0.0 | 0.00 | 0.00 | 0.00 | 98 | 1015.2 |
| 20260503053547 | 1 | 33 | 0.0 | 0.0 | 0.00 | 0.00 | 0.00 | 98 | 1015.4 |
| 20260503053044 | 1 | 33 | 0.0 | 0.0 | 0.00 | 0.00 | 0.00 | 98 | 1015.2 |
| 20260503052541 | 1 | 33 | 0.0 | 0.0 | 0.00 | 0.00 | 0.00 | 98 | 1015.4 |
| 20260503052037 | 2 | 38 | 0.0 | 0.0 | 0.00 | 0.00 | 0.00 | 98 | 1015.1 |
| 20260503051533 | 2 | 38 | 0.0 | 0.0 | 0.00 | 0.00 | 0.00 | 97 | 1015.1 |
| 20260503051031 | 2 | 38 | 0.0 | 0.0 | 0.00 | 0.00 | 0.00 | 97 | 1015.2 |
| 20260503050526 | 1 | 38 | 0.0 | 0.0 | 0.00 | 0.00 | 0.00 | 97 | 1015.5 |
| 20260503050024 | 2 | 39 | 0.0 | 0.0 | 0.00 | 0.00 | 0.00 | 97 | 1015.4 |
| 20260503045521 | 2 | 34 | 0.0 | 0.0 | 0.00 | 0.00 | 0.00 | 96 | 1015.4 |
| 20260503045018 | 2 | 34 | 0.0 | 0.0 | 0.00 | 0.00 | 0.00 | 96 | 1015.3 |
| 20260503044515 | 2 | 33 | 0.0 | 0.0 | 0.00 | 0.00 | 0.00 | 95 | 1015.4 |
| 20260503044013 | 2 | 33 | 0.0 | 0.0 | 0.00 | 0.00 | 0.00 | 95 | 1015.3 |
| 20260503043508 | 2 | 34 | 0.0 | 0.0 | 0.00 | 0.00 | 0.00 | 95 | 1015.4 |
| 20260503043005 | 2 | 37 | 0.0 | 0.0 | 0.00 | 0.00 | 0.00 | 94 | 1015.1 |
| 20260503042501 | 2 | 54 | 0.0 | 0.0 | 0.00 | 0.00 | 0.00 | 94 | 1015.1 |
| 20260503041958 | 2 | 80 | 0.0 | 0.0 | 0.00 | 0.00 | 0.00 | 94 | 1015.5 |
| 20260503041455 | 2 | 55 | 0.0 | 0.0 | 0.00 | 0.00 | 0.00 | 94 | 1015.4 |
| 20260503040953 | 2 | 54 | 0.0 | 0.0 | 0.00 | 0.00 | 0.00 | 94 | 1015.4 |
| 20260503040450 | 2 | 54 | 0.0 | 0.0 | 0.00 | 0.00 | 0.00 | 94 | 1015.3 |
| 20260503035947 | 2 | 54 | 0.0 | 0.0 | 0.00 | 0.00 | 0.00 | 93 | 1015.2 |
| 20260503035444 | 3 | 54 | 0.0 | 0.0 | 0.00 | 0.00 | 0.00 | 93 | 1015.4 |
| 20260503034942 | 3 | 55 | 0.0 | 0.0 | 0.00 | 0.00 | 0.00 | 92 | 1015.6 |
| 20260503034439 | 3 | 59 | 0.0 | 0.0 | 0.00 | 0.00 | 0.00 | 92 | 1015.3 |
| 20260503033936 | 3 | 53 | 0.0 | 0.0 | 0.00 | 0.00 | 0.00 | 93 | 1015.3 |
| 20260503033433 | 3 | 46 | 0.0 | 0.0 | 0.00 | 0.00 | 0.00 | 92 | 1015.3 |
| 20260503032931 | 3 | 44 | 0.0 | 0.0 | 0.00 | 0.00 | 0.00 | 91 | 1015.4 |
| 20260503032429 | 3 | 44 | 0.0 | 0.0 | 0.00 | 0.00 | 0.00 | 91 | 1015.4 |
| 20260503031926 | 3 | 72 | 0.0 | 0.0 | 0.00 | 0.00 | 0.00 | 91 | 1015.6 |
| 20260503031424 | 3 | 163 | 0.0 | 0.0 | 0.00 | 0.00 | 0.00 | 92 | 1015.3 |
| 20260503030920 | 3 | 28 | 0.0 | 0.0 | 0.00 | 0.00 | 0.00 | 92 | 1015.4 |
| 20260503030417 | 3 | 28 | 0.0 | 0.0 | 0.00 | 0.00 | 0.00 | 91 | 1015.4 |
| 20260503025914 | 3 | 27 | 0.0 | 0.0 | 0.00 | 0.00 | 0.00 | 91 | 1015.4 |
| 20260503025411 | 3 | 27 | 0.0 | 0.0 | 0.00 | 0.00 | 0.00 | 90 | 1015.5 |
| 20260503024908 | 3 | 27 | 0.0 | 0.0 | 0.00 | 0.00 | 0.00 | 89 | 1015.5 |
| 20260503024405 | 3 | 27 | 0.0 | 0.0 | 0.00 | 0.00 | 0.00 | 88 | 1015.5 |
| 20260503023902 | 3 | 27 | 0.0 | 0.0 | 0.00 | 0.00 | 0.00 | 87 | 1015.5 |
| 20260503023359 | 4 | 27 | 0.0 | 0.0 | 0.00 | 0.00 | 0.00 | 87 | 1015.5 |
| 20260503022855 | 4 | 27 | 0.0 | 0.0 | 0.00 | 0.00 | 0.00 | 87 | 1015.5 |
| 20260503022350 | 3 | 27 | 0.0 | 0.0 | 0.00 | 0.00 | 0.00 | 86 | 1015.4 |
| 20260503021846 | 4 | 27 | 0.0 | 0.0 | 0.00 | 0.00 | 0.00 | 84 | 1015.3 |
| 20260503021343 | 4 | 27 | 0.0 | 0.0 | 0.00 | 0.00 | 0.00 | 84 | 1015.3 |
| 20260503020840 | 4 | 27 | 0.0 | 0.0 | 0.00 | 0.00 | 0.00 | 83 | 1015.4 |
| 20260503020338 | 5 | 27 | 0.0 | 0.0 | 0.00 | 0.00 | 0.00 | 81 | 1015.3 |
| 20260503015834 | 5 | 28 | 0.0 | 0.0 | 0.00 | 0.00 | 0.00 | 81 | 1015.4 |
| 20260503015331 | 5 | 28 | 0.0 | 0.0 | 0.00 | 0.00 | 0.00 | 80 | 1015.1 |
| 20260503014827 | 5 | 27 | 0.0 | 0.0 | 0.00 | 0.00 | 0.00 | 79 | 1015.1 |
| 20260503014325 | 5 | 27 | 0.0 | 0.0 | 0.00 | 0.00 | 0.00 | 78 | 1015.3 |
| 20260503013822 | 5 | 27 | 0.0 | 0.0 | 0.00 | 0.00 | 0.00 | 77 | 1015.3 |
| 20260503013319 | 6 | 27 | 0.0 | 0.0 | 0.00 | 0.00 | 0.00 | 75 | 1015.1 |
| 20260503012816 | 6 | 27 | 0.0 | 0.0 | 0.00 | 0.00 | 0.00 | 74 | 1014.9 |
| 20260503012314 | 6 | 27 | 0.0 | 0.0 | 0.00 | 0.00 | 0.00 | 73 | 1015.1 |
| 20260503011810 | 6 | 27 | 0.0 | 0.0 | 0.00 | 0.00 | 0.00 | 71 | 1014.8 |
| 20260503011308 | 7 | 27 | 0.0 | 0.0 | 0.00 | 0.00 | 0.00 | 68 | 1014.7 |
| 20260503010804 | 7 | 27 | 0.0 | 0.0 | 0.00 | 0.00 | 0.00 | 66 | 1014.8 |
| 20260503010301 | 7 | 27 | 0.0 | 0.0 | 0.00 | 0.00 | 0.00 | 64 | 1014.8 |
| 20260503005758 | 7 | 11 | 0.0 | 0.0 | 0.00 | 0.00 | 0.00 | 63 | 1014.7 |
| 20260503005255 | 8 | 21 | 0.0 | 3.2 | 0.00 | 0.00 | 0.00 | 62 | 1015.0 |
| 20260503004751 | 8 | 12 | 1.6 | 8.0 | 0.00 | 0.00 | 0.00 | 60 | 1014.7 |
| 20260503004249 | 8 | 357 | 0.0 | 3.2 | 0.00 | 0.00 | 0.00 | 61 | 1014.7 |
| 20260503003746 | 8 | 36 | 1.6 | 4.8 | 0.00 | 0.00 | 0.00 | 60 | 1014.6 |
| 20260503003243 | 8 | 358 | 3.2 | 3.2 | 0.00 | 0.00 | 0.00 | 60 | 1014.6 |
| 20260503002740 | 8 | 331 | 3.2 | 3.2 | 0.00 | 0.00 | 0.00 | 60 | 1014.5 |
| 20260503002237 | 8 | 19 | 1.6 | 9.7 | 0.00 | 0.00 | 0.00 | 59 | 1014.5 |
| 20260503001733 | 9 | 10 | 4.8 | 4.8 | 0.00 | 0.00 | 0.00 | 58 | 1014.5 |
| 20260503001229 | 9 | 357 | 4.8 | 4.8 | 0.00 | 0.00 | 0.00 | 57 | 1014.4 |
| 20260503000728 | 9 | 336 | 4.8 | 8.0 | 0.00 | 0.00 | 0.00 | 56 | 1014.4 |
| 20260503000226 | 9 | 21 | 1.6 | 3.2 | 0.00 | 0.00 | 0.00 | 56 | 1014.6 |
| 20260502235721 | 10 | 22 | 4.8 | 11.3 | 0.00 | 0.00 | 0.00 | 54 | 1014.2 |
| 20260502235220 | 10 | 23 | 8.0 | 12.9 | 0.00 | 0.00 | 0.00 | 54 | 1014.4 |
| 20260502234715 | 10 | 309 | 3.2 | 8.0 | 0.00 | 0.00 | 0.00 | 55 | 1014.2 |
| 20260502234213 | 10 | 38 | 4.8 | 11.3 | 0.00 | 0.00 | 0.00 | 56 | 1014.3 |
| 20260502233708 | 10 | 353 | 3.2 | 11.3 | 0.00 | 0.00 | 0.00 | 54 | 1014.1 |
| 20260502233206 | 10 | 7 | 4.8 | 4.8 | 0.00 | 0.00 | 0.00 | 54 | 1014.3 |
| 20260502232701 | 10 | 336 | 4.8 | 9.7 | 0.00 | 0.00 | 0.00 | 53 | 1014.3 |
| 20260502232159 | 10 | 20 | 8.0 | 14.5 | 0.00 | 0.00 | 0.00 | 52 | 1014.1 |
| 20260502231655 | 10 | 5 | 6.4 | 9.7 | 0.00 | 0.00 | 0.00 | 53 | 1014.0 |
| 20260502231153 | 11 | 50 | 8.0 | 11.3 | 0.00 | 0.00 | 0.00 | 52 | 1014.2 |
| 20260502230651 | 10 | 317 | 4.8 | 8.0 | 0.00 | 0.00 | 0.00 | 52 | 1014.0 |
| 20260502230150 | 10 | 340 | 6.4 | 9.7 | 0.00 | 0.00 | 0.00 | 51 | 1014.2 |
| 20260502225645 | 10 | 302 | 4.8 | 8.0 | 0.00 | 0.00 | 0.00 | 53 | 1014.2 |
| 20260502225143 | 10 | 308 | 4.8 | 11.3 | 0.00 | 0.00 | 0.00 | 51 | 1014.0 |
| 20260502224638 | 10 | 340 | 4.8 | 8.0 | 0.00 | 0.00 | 0.00 | 52 | 1014.1 |
| 20260502224130 | 10 | 281 | 4.8 | 11.3 | 0.00 | 0.00 | 0.00 | 52 | 1013.9 |
| 20260502223627 | 10 | 347 | 4.8 | 12.9 | 0.00 | 0.00 | 0.00 | 51 | 1013.8 |
| 20260502223126 | 11 | 344 | 4.8 | 12.9 | 0.00 | 0.00 | 0.00 | 50 | 1014.0 |
| 20260502222623 | 11 | 333 | 3.2 | 11.3 | 0.00 | 0.00 | 0.00 | 51 | 1013.9 |
| 20260502222119 | 11 | 344 | 6.4 | 11.3 | 0.00 | 0.00 | 0.00 | 50 | 1013.9 |
| 20260502221615 | 11 | 351 | 6.4 | 8.0 | 0.00 | 0.00 | 0.00 | 50 | 1013.9 |
| 20260502221112 | 11 | 344 | 9.7 | 12.9 | 0.00 | 0.00 | 0.00 | 50 | 1014.0 |
| 20260502220609 | 11 | 290 | 11.3 | 16.1 | 0.00 | 0.00 | 0.00 | 49 | 1013.8 |
| 20260502220105 | 11 | 333 | 8.0 | 11.3 | 0.00 | 0.00 | 0.00 | 50 | 1013.7 |
| 20260502215602 | 11 | 9 | 8.0 | 12.9 | 0.00 | 0.00 | 0.00 | 48 | 1013.9 |
| 20260502215059 | 12 | 341 | 8.0 | 16.1 | 0.00 | 0.00 | 0.00 | 48 | 1013.9 |
| 20260502214555 | 11 | 328 | 4.8 | 11.3 | 0.00 | 0.00 | 0.00 | 47 | 1013.6 |
| 20260502214053 | 11 | 342 | 4.8 | 9.7 | 0.00 | 0.00 | 0.00 | 49 | 1013.7 |
| 20260502213550 | 11 | 46 | 11.3 | 12.9 | 0.00 | 0.00 | 0.00 | 48 | 1013.8 |
| 20260502213048 | 11 | 348 | 4.8 | 12.9 | 0.00 | 0.00 | 0.00 | 50 | 1013.7 |
| 20260502212546 | 11 | 322 | 6.4 | 12.9 | 0.00 | 0.00 | 0.00 | 48 | 1013.7 |
| 20260502212044 | 11 | 348 | 4.8 | 11.3 | 0.00 | 0.00 | 0.00 | 49 | 1013.6 |
| 20260502211539 | 11 | 292 | 4.8 | 11.3 | 0.00 | 0.00 | 0.00 | 48 | 1013.3 |
| 20260502211037 | 11 | 305 | 8.0 | 11.3 | 0.00 | 0.00 | 0.00 | 47 | 1013.4 |
| 20260502210533 | 11 | 311 | 4.8 | 4.8 | 0.00 | 0.00 | 0.00 | 48 | 1013.6 |
| 20260502210031 | 11 | 279 | 4.8 | 9.7 | 0.00 | 0.00 | 0.00 | 46 | 1013.2 |
| 20260502205527 | 12 | 1 | 9.7 | 12.9 | 0.00 | 0.00 | 0.00 | 46 | 1013.2 |
| 20260502205024 | 11 | 18 | 1.6 | 8.0 | 0.00 | 0.00 | 0.00 | 46 | 1013.4 |
| 20260502204521 | 11 | 327 | 3.2 | 11.3 | 0.00 | 0.00 | 0.00 | 46 | 1013.6 |
| 20260502204019 | 11 | 352 | 6.4 | 12.9 | 0.00 | 0.00 | 0.00 | 47 | 1013.4 |
| 20260502203515 | 11 | 345 | 8.0 | 14.5 | 0.00 | 0.00 | 0.00 | 46 | 1013.3 |
| 20260502203012 | 12 | 54 | 11.3 | 16.1 | 0.00 | 0.00 | 0.00 | 46 | 1013.4 |
| 20260502202508 | 12 | 328 | 8.0 | 12.9 | 0.00 | 0.00 | 0.00 | 46 | 1013.6 |
| 20260502202007 | 11 | 345 | 4.8 | 12.9 | 0.00 | 0.00 | 0.00 | 48 | 1013.7 |
| 20260502201503 | 11 | 27 | 12.9 | 14.5 | 0.00 | 0.00 | 0.00 | 49 | 1013.9 |
| 20260502200959 | 12 | 20 | 4.8 | 12.9 | 0.00 | 0.00 | 0.00 | 48 | 1013.7 |
| 20260502200455 | 13 | 307 | 1.6 | 3.2 | 0.00 | 0.00 | 0.00 | 45 | 1013.7 |
| 20260502195953 | 12 | 286 | 4.8 | 14.5 | 0.00 | 0.00 | 0.00 | 45 | 1013.9 |
| 20260502195450 | 11 | 326 | 6.4 | 12.9 | 0.00 | 0.00 | 0.00 | 48 | 1013.6 |
| 20260502194946 | 11 | 341 | 0.0 | 3.2 | 0.00 | 0.00 | 0.00 | 49 | 1013.9 |
| 20260502194443 | 11 | 319 | 6.4 | 9.7 | 0.00 | 0.00 | 0.00 | 48 | 1013.9 |
| 20260502193939 | 11 | 60 | 1.6 | 14.5 | 0.00 | 0.00 | 0.00 | 48 | 1013.7 |
| 20260502193437 | 11 | 316 | 6.4 | 11.3 | 0.00 | 0.00 | 0.00 | 47 | 1013.8 |
| 20260502192932 | 11 | 17 | 6.4 | 9.7 | 0.00 | 0.00 | 0.00 | 48 | 1013.8 |
| 20260502192429 | 12 | 346 | 4.8 | 12.9 | 0.00 | 0.00 | 0.00 | 46 | 1013.9 |
| 20260502191926 | 11 | 315 | 6.4 | 9.7 | 0.00 | 0.00 | 0.00 | 48 | 1013.9 |
| 20260502191424 | 11 | 358 | 3.2 | 12.9 | 0.00 | 0.00 | 0.00 | 49 | 1014.1 |
| 20260502190921 | 11 | 47 | 11.3 | 11.3 | 0.00 | 0.00 | 0.00 | 49 | 1014.1 |
| 20260502190418 | 11 | 348 | 4.8 | 8.0 | 0.00 | 0.00 | 0.00 | 48 | 1014.1 |
| 20260502185914 | 11 | 10 | 11.3 | 17.7 | 0.00 | 0.00 | 0.00 | 46 | 1014.0 |